Flag Weather past 2 weeks in George Town, Cayman Islands

Now
81 °F

Passing clouds.


Feels Like: 88 °F
Forecast: 82 / 84 °F
Wind: 5 mph from East

Location: Owen Roberts Airportgrand Cayman

Current Time: Nov 24, 2014 at 7:50:59 PM

Latest Report: Nov 24, 2014 at 7:00 PM


Visibility: N/A

Pressure: 29.92 "Hg

Humidity: 94%

Dew point: 79 °F

Location of George TownLocation

Historic Weather in George Town — Graph

°F

George Town temperature yesterday

Maximum temperature yesterday: 88 °F (at 11:55 AM)
Minimum temperature yesterday: 79 °F (at 5:52 AM)
Average temperature yesterday: 83 °F

Past Weeks' High & Low Weather Summary

 TemperatureHumidityPressure
High88 °F (Nov 16, 2:00 PM)100% (Nov 11, 7:00 AM)30.07 "Hg (Nov 11, 7:00 AM)
Low75 °F (Nov 11, 7:00 AM)62% (Nov 10, 1:00 PM)29.86 "Hg (Nov 9, 7:00 PM)
Average82 °F79%29.96 "Hg
* Reported Nov 9 7:00 PM — Nov 24 7:00 PM, George Town, Weather by CustomWeather, © 2014

Note: Actual official high and low records may vary slightly from our data, if they occured in-between our weather recording intervals... More about our weather records

Advertising

George Town weather history for previous 24 hours

 ConditionsComfort  
Time TempWeatherWind HumidityBarometerVisibility
7:00 PM
Nov 24
81 °FPassing clouds.5 mph94%29.92 "HgN/A
6:00 PM79 °FScattered showers. Passing clouds.9 mph94%29.92 "HgN/A
5:00 PM81 °FScattered showers. Scattered clouds.14 mph89%29.92 "HgN/A
4:00 PM84 °FSprinkles. Partly sunny.13 mph84%29.89 "HgN/A
3:00 PM84 °FPassing clouds.8 mph89%29.89 "HgN/A
2:00 PM86 °FPassing clouds.14 mph79%29.89 "HgN/A
1:00 PM86 °FPassing clouds.14 mph79%29.92 "HgN/A
12:00 PM81 °FScattered clouds.12 mph94%29.95 "HgN/A
11:00 AM86 °FScattered clouds.13 mph75%29.95 "HgN/A
10:00 AM86 °FPartly sunny.14 mph79%29.95 "HgN/A
9:00 AM84 °FScattered clouds.13 mph84%29.95 "HgN/A
8:00 AM84 °FPassing clouds.7 mph84%29.92 "HgN/A
7:00 AM81 °FPassing clouds.7 mph89%29.92 "HgN/A
6:00 AM81 °FPassing clouds.7 mph89%29.89 "HgN/A
10:00 PM
Nov 23
81 °FPassing clouds.5 mph84%29.92 "HgN/A
9:00 PM81 °FPassing clouds.5 mph84%29.92 "HgN/A
8:00 PM81 °FPassing clouds.5 mph84%29.92 "HgN/A
7:00 PM82 °FPassing clouds.6 mph79%29.89 "HgN/A
Weather by CustomWeather, © 2014

See weather overviewHow to use our weather pages